Find Starlink 30590

NORAD ID: 58090 Int'l Des: 2023-160 Owner: SPXS Country: US Constellation: starlink operational
LEOCIRCULAR

当前视图

正在加载3D地球...

About Starlink 30590

Starlink 30590 (NORAD 58090) is a starlink constellation satellite (v2 mini) launched Oct 18, 2023 by SPXS of US. It operates in LEO, CIRCULAR orbit with a mass of 730.00 kg.

关于 Starlink 30590

正在加载描述...

即将过境

Passes for default location (London). Set your location on the main map for personalized predictions.

高度历史

Loading altitude history...

两行轨道根数

1 58090U 23160R 26195.41191862 .00000617 00000-0 31966-4 0 9992
2 58090 43.0042 85.8445 0001129 274.0970 85.9753 15.27572787152289
Epoch: Jul 14, 2026 • Age: 10 hours

当前状态

高度 492.8 km
远地点 / 近地点 N/A
速度 7.62 km/s
星下点 -35.82°S, 75.85°E
发射日期 Oct 18, 2023
运行时间 2.7 years
类型 internet

技术详情

分类 Payload
质量 730.00 kg
干质量 700.00 kg
总质量 730.00 kg
长度 0.30 m
直径 4.10 m
跨度 29.00 m
形状 Box + pan
制造商 SPXS
平台类型 Starlink V2M
阶段状态 In Orbit
所有者/国家 SPXS/US

Most Searched